Flag for United Kingdom Weather past 2 weeks in Southend-on-Sea, England, United Kingdom

Now
70 °F

Passing clouds.


Feels Like: 70 °F
Forecast: 53 / 69 °F
Wind: 16 mph from Southwest

Location: Southend Airport-On-Sea

Current Time: Aug 28, 2015 at 4:08:16 PM

Latest Report: Aug 28, 2015 at 3:20 PM


Visibility: N/A

Pressure: 30.04 "Hg

Humidity: 40%

Dew point: 45 °F

Location of Southend-on-SeaLocation

Historic Weather in Southend-on-Sea — Graph

°F

Southend-on-Sea temperature yesterday

Maximum temperature yesterday: 68 °F (at 4:20 PM)
Minimum temperature yesterday: 54 °F (at 10:20 PM)
Average temperature yesterday: 61 °F

Past Weeks' High & Low Weather Summary

 TemperatureHumidityPressure
High84 °F (Aug 22, 1:50 PM)94% (Aug 13, 2:50 PM)30.15 "Hg (Aug 13, 2:50 PM)
Low48 °F (Aug 17, 5:20 AM)38% (Aug 17, 12:50 PM)29.39 "Hg (Aug 24, 2:20 PM)
Average64 °F72%29.86 "Hg
* Reported Aug 13 2:20 PM — Aug 28 2:50 PM, Southend-on-Sea, Weather by CustomWeather, © 2015

Note: Actual official high and low records may vary slightly from our data, if they occured in-between our weather recording intervals... More about our weather records

Advertising

Southend-on-Sea weather history for previous 24 hours

 ConditionsComfort  
Time TempWeatherWind HumidityBarometerVisibility
2:50 PM
Fri, Aug 28
70 °FPassing clouds.17 mph46%30.04 "HgN/A
2:20 PM66 °FPassing clouds.15 mph52%30.04 "HgN/A
1:50 PM66 °FPassing clouds.16 mph49%30.04 "HgN/A
1:20 PM68 °FPassing clouds.16 mph49%30.04 "HgN/A
12:50 PM68 °FPassing clouds.12 mph49%30.04 "HgN/A
12:20 PM66 °FPassing clouds.15 mph49%30.01 "HgN/A
11:50 AM68 °FPassing clouds.15 mph46%30.01 "HgN/A
11:20 AM66 °FPassing clouds.14 mph52%30.01 "HgN/A
10:50 AM64 °FPassing clouds.13 mph56%30.01 "HgN/A
10:20 AM63 °FPassing clouds.15 mph64%30.01 "HgN/A
9:50 AM63 °FPassing clouds.12 mph64%30.01 "HgN/A
9:20 AM61 °FPassing clouds.9 mph68%30.01 "HgN/A
8:50 AM59 °FSunny.9 mph77%29.98 "Hg10 mi
8:20 AM57 °FSunny.7 mph77%29.98 "Hg10 mi
7:50 AM57 °FPassing clouds.6 mph82%29.98 "HgN/A
7:20 AM55 °FPassing clouds.6 mph88%29.98 "HgN/A
6:50 AM50 °FClear.6 mph94%29.95 "Hg10 mi
6:20 AM50 °FClear.6 mph88%29.95 "Hg10 mi
5:50 AM50 °FClear.6 mph88%29.95 "Hg10 mi
4:50 AM52 °FClear.3 mph88%29.92 "Hg10 mi
4:20 AM52 °FClear.6 mph88%29.92 "Hg10 mi
3:50 AM52 °FClear.5 mph94%29.92 "Hg10 mi
3:20 AM52 °FClear.5 mph88%29.89 "Hg10 mi
2:50 AM54 °FClear.5 mph88%29.89 "Hg10 mi
1:50 AM52 °FClear.7 mph94%29.89 "Hg10 mi
1:20 AM54 °FClear.6 mph88%29.86 "Hg10 mi
11:50 PM
Thu, Aug 27
55 °FClear.8 mph82%29.86 "Hg10 mi
10:50 PM55 °FClear.8 mph82%29.83 "Hg10 mi
10:20 PM54 °FClear.5 mph88%29.83 "Hg10 mi
9:50 PM55 °FClear.6 mph82%29.83 "Hg10 mi
9:20 PM55 °FPassing clouds.12 mph82%29.83 "HgN/A
8:50 PM61 °FPassing clouds.12 mph68%29.80 "HgN/A
8:20 PM61 °FPassing clouds.14 mph68%29.80 "HgN/A
7:50 PM61 °FPassing clouds.10 mph68%29.77 "HgN/A
7:20 PM63 °FPassing clouds.14 mph64%29.77 "HgN/A
6:50 PM64 °FPassing clouds.16 mph60%29.77 "HgN/A
6:20 PM64 °FPassing clouds.16 mph60%29.74 "HgN/A
5:50 PM66 °FPassing clouds.18 mph56%29.74 "HgN/A
5:20 PM66 °FPassing clouds.17 mph60%29.74 "HgN/A
4:50 PM66 °FPassing clouds.16 mph56%29.74 "HgN/A
4:20 PM68 °FScattered clouds.20 mph53%29.74 "HgN/A
Weather by CustomWeather, © 2015

See weather overviewHow to use our weather pages